Regional Weather Roundup
Issued by NWS

Home | Current Version | Previous Version | Graphics & Text | Print | Product List | Glossary On
Versions: 1 2 3 4 5 6 7 8 9 10 11 12 13 14 15 16 17 18 19 20 21 22 23 24 25 26 27 28 29 30 31 32 33 34 35 36 37 38 39 40 41 42 43 44 45 46 47 48 49 50
000
ASUS43 KMPX 010501
RWRMN
WEATHER ROUNDUP FOR MINNESOTA
NATIONAL WEATHER SERVICE TWIN CITIES/CHANHASSEN MN
1200 AM CDT FRI AUG 01 2014


NOTE: "FAIR" INDICATES FEW OR NO CLOUDS BELOW 12,000 FEET WITH NO
SIGNIFICANT WEATHER AND/OR OBSTRUCTIONS TO VISIBILITY. N/A MEANS
CURRENT SKY AND/OR WEATHER CONDITIONS ARE NOT AVAILABLE.

MNZ060>063-068>070-010600-
   Twin Cities Metro

CITY           SKY/WX    TMP DP  RH WIND       PRES   REMARKS
TWIN CITIES    CLEAR     71  59  65 CALM      30.02R
ST PAUL        CLEAR     68  59  73 CALM      30.02R
CRYSTAL        CLEAR     66  58  75 CALM      30.00S
BLAINE         CLEAR     66  61  82 CALM      30.02R
LAKEVILLE      CLEAR     61  57  88 CALM      30.03R
EDEN PRAIRIE   CLEAR     67  59  75 SW5       30.01S
SOUTH ST PAUL  CLEAR     69  58  67 SW3       30.01S
LAKE ELMO      FAIR      61  59  94 CALM      30.02S
$$
MNZ001>005-007-008-013>017-022>024-027-028-010600-
   Northwest Minnesota

CITY           SKY/WX    TMP DP  RH WIND       PRES   REMARKS
BEMIDJI        CLEAR     59  57  93 CALM      30.02S
HALLOCK        CLEAR     64  61  88 CALM      30.01S
ROSEAU           N/A     63  55  77 CALM      30.00S
WARROAD        CLEAR     61  55  82 CALM      30.01R
THIEF RVR FALL MOCLDY    66  63  88 CALM      30.02R
CROOKSTON      CLEAR     66  64  94 CALM      30.02R
FOSSTON        CLEAR     57  54  88 CALM      30.03S HAZE
DETROIT LAKES  CLEAR     64  63  94 CALM      30.05R
MOORHEAD       CLEAR     68  64  88 SW3       30.02S
PARK RAPIDS    CLEAR     62  59  90 CALM      30.03S
$$
MNZ006-009>011-018-025>026-010600-
   North Central Minnesota

CITY           SKY/WX    TMP DP  RH WIND       PRES   REMARKS
BAUDETTE       CLEAR     59  57  93 CALM      30.01R
FLAG ISLAND    CLEAR     70  63  78 CALM      29.98S
INTL FALLS     CLEAR     53  51  93 CALM      30.00R
WASKISH        CLEAR     57  55  94 CALM      30.00F
BIG FORK       CLEAR     55  54  94 CALM      30.02R
LONGVILLE      CLEAR     57  57 100 CALM      30.02R FOG
GRAND RAPIDS   CLEAR     59  55  88 CALM      30.02R
CRANE LAKE     CLEAR     52  52 100 CALM      30.02S FOG
ORR            CLEAR     54  52  94 CALM      30.00R
COOK           CLEAR     55  54  94 CALM      30.01S FOG
$$
MNZ012-019>021-037-010600-
   Northeast Minnesota

CITY           SKY/WX    TMP DP  RH WIND       PRES   REMARKS
DULUTH         PTCLDY    61  56  83 CALM      30.01R
ELY            CLEAR     54  50  87 CALM      30.01S
HIBBING        CLEAR     55  52  89 NW3       30.01R FOG
EVELETH        CLEAR     54  52  94 CALM      30.02R FOG
DULUTH HARBOR  CLEAR     66  61  82 CALM      29.99R
TWO HARBORS    CLEAR     55  50  82 CALM      29.98R
SILVER BAY     CLEAR     54  54 100 NW3       29.98R
GRAND MARAIS     N/A     65  49  56 CALM      29.96R
G MARAIS ARPRT CLEAR     48  45  87 N6        30.02S
$$
MNZ029>031-032-039>041-046>048-054>057-064-010600-
   West Central Minnesota

CITY           SKY/WX    TMP DP  RH WIND       PRES   REMARKS
FERGUS FALLS   CLEAR     66  57  72 CALM      30.03R
WHEATON        CLEAR     61  57  88 CALM      30.05R
MORRIS         CLEAR     63  59  88 MISG      30.03S
ALEXANDRIA     CLEAR     66  61  84 SW3       30.06R
ELBOW LAKE     FAIR      67  64  88 CALM      30.04R FOG
WADENA         CLEAR     61  59  94 CALM      30.03S
GLENWOOD       CLEAR     64  61  88 W6        30.05S
APPLETON       CLEAR     63  59  88 CALM      30.04R
BENSON         CLEAR     61  59  94 CALM      30.04R
ORTONVILLE     CLEAR     66  57  72 W3        30.04S
MADISON        CLEAR     64  61  88 CALM      30.05R
WILLMAR        FAIR      63  57  82 CALM      30.06R
$$
MNZ033>034-036-042>043-049>051-058-059-010600-
   Central Minnesota

CITY           SKY/WX    TMP DP  RH WIND       PRES   REMARKS
ST CLOUD       CLEAR     64  58  80 CALM      30.02R
SAUK CENTRE    FAIR      63  59  88 CALM      30.05R
PAYNESVILLE    CLEAR     56  55  95 SW3       30.04S
AITKIN         HAZE      61  54  77 CALM      30.01R VSB 1/2
PINE RIVER     CLEAR     59  57  94 CALM      30.06R
BRAINERD       PTCLDY    61  60  97 CALM      30.03R
STAPLES        CLEAR     63  57  82 CALM      30.03R
LONG PRAIRIE   FAIR      59  59 100 CALM      30.05R
LITTLE FALLS   CLEAR     59  57  94 CALM      30.03R FOG
LITCHFIELD       N/A     66  63  88 CALM      30.04S
BUFFALO        CLEAR     69  59  72 CALM      30.03S
MAPLE LAKE     CLEAR     64  61  91 CALM      30.03S
$$
MNZ037-044-045-052-053-010600-
   East Central Minnesota

CITY           SKY/WX    TMP DP  RH WIND       PRES   REMARKS
PRINCETON      CLEAR     63  61  94 CALM      30.02R
MORA           PTCLDY    64  61  88 CALM      30.02S
CAMBRIDGE      CLEAR     68  57  68 CALM      29.99S
RUSH CITY      PTCLDY    63  60  90 CALM      30.01R
MOOSE LAKE     PTCLDY    59  59 100 CALM      29.99R FOG
HINCKLEY       FAIR      61  61 100 CALM      30.00R
CLOQUET        CLEAR     57  55  94 CALM      30.01R
MCGREGOR       CLEAR     61  57  88 CALM      30.02R
$$
MNZ071>073-080-081-089-090-097-098-010600-
   Southwest Minnesota

CITY           SKY/WX    TMP DP  RH WIND       PRES   REMARKS
MONTEVIDEO     CLEAR     64  55  72 CALM      30.05R
GRANITE FALLS  CLEAR     61  58  91 CALM      30.06R
CANBY          CLEAR     61  57  85 W3        30.06S
MARSHALL       CLEAR     61  55  82 SW3       30.05R
REDWOOD FALLS  CLEAR     67  59  75 W3        30.04R
OLIVIA         CLEAR     63  57  82 CALM      30.04R
PIPESTONE      CLEAR     63  57  82 CALM      30.08S
WINDOM         CLEAR     61  57  88 CALM      30.07R
WORTHINGTON    CLEAR     61  57  88 W5        30.08S
JACKSON        CLEAR     63  59  88 CALM      30.07S
TRACY          CLEAR     65  57  77 SW5       30.07R
SLAYTON        CLEAR     60  57  90 CALM      30.08S
$$
MNZ065>067-074>077-082>085-091>093-010600-
   South Central Minnesota

CITY           SKY/WX    TMP DP  RH WIND       PRES   REMARKS
MANKATO        CLEAR     64  54  68 CALM      30.04S
NEW ULM        CLEAR     63  61  94 CALM      30.04S
ST JAMES       CLEAR     61  55  82 CALM      30.06S
FAIRMONT       CLEAR     64  55  72 CALM      30.05S
GLENCOE        CLEAR     64  57  80 CALM      30.03S
FARIBAULT      CLEAR     63  55  77 CALM      30.04S
OWATONNA       CLEAR     61  55  82 CALM      30.05S
WASECA         CLEAR     55  52  88 CALM      30.06S
ALBERT LEA     CLEAR     61  57  88 CALM      30.06R
$$
MNZ078>079-086>088-094>096-010600-
   Southeast Minnesota

CITY           SKY/WX    TMP DP  RH WIND       PRES   REMARKS
ROCHESTER      CLEAR     62  56  80 SW7       30.06S
RED WING       CLEAR     63  61  94 CALM      30.02R
STANTON        CLEAR     61  57  86 CALM      30.02S
DODGE CENTER   PTCLDY    63  57  82 SW3       30.06R
WINONA         CLEAR     63  61  94 CALM      30.02S
AUSTIN         CLEAR     59  55  88 CALM      30.05S
PRESTON        CLEAR     63  60  91 SW6       30.06S
$$
ABBREVIATIONS USED IN REMARKS
   TC - TEMPERATURES IN CELSIUS
  WCI - WIND CHILL INDEX
   HX - HEAT INDEX
  VSB - VISIBILITY
$$



USA.gov is the U.S. government's official web portal to all federal, state and local government web resources and services.